Regional Weather Roundup
Issued by NWS Sioux Falls, SD

Home | Current Version | Previous Version | Text Only | Print | Product List | Glossary On
Versions: 1 2 3 4 5 6 7 8 9 10 11 12 13 14 15 16 17 18 19 20 21 22 23 24 25 26 27 28 29 30 31 32 33 34 35 36 37 38 39 40 41 42 43 44 45 46 47 48 49 50
000
ASUS43 KFSD 191810
RWRFSD

WEATHER ROUNDUP FOR SE SOUTH DAKOTA/SW MINNESOTA/NW IOWA
NATIONAL WEATHER SERVICE SIOUX FALLS SD
1200 PM CST MON FEB 19 2018

NOTE: "FAIR" INDICATES FEW OR NO CLOUDS BELOW 12,000 FEET WITH NO
SIGNIFICANT WEATHER AND OR OBSTRUCTIONS TO VISIBILITY.


SDZ038>040-050-052>070-191900-
SOUTHEAST SOUTH DAKOTA

CITY           SKY/WX    TMP DP  RH WIND       PRES   REMARKS
BROOKINGS      FLURRIES  13   8  81 N22G29    29.90F WCI  -6
CHAMBERLAIN    LGT SNOW  12   7  82 N15G22    30.00S WCI  -4
6HR MIN TEMP:  10; 6HR MAX TEMP:  12;

HURON          CLOUDY    11   6  81 N20G29    30.01F WCI  -7
6HR MIN TEMP:   9; 6HR MAX TEMP:  11; 6HR PCP: TRACE;

MADISON        LGT RAIN  14  14 100 NE24G30   29.89R WCI  -5
MITCHELL       CLOUDY    15  10  80 N20       29.98F WCI  -2
6HR MIN TEMP:  12; 6HR MAX TEMP:  15; 6HR PCP: TRACE;

SIOUX FALLS    LGT SNOW  17  12  80 NE15      29.88S WCI   2
6HR MIN TEMP:  14; 6HR MAX TEMP:  17; 6HR PCP: TRACE;

WINNER         LGT SNOW   9   4  80 N20       29.99S WCI -10
YANKTON        FLURRIES  17  12  80 N15G22    29.89F WCI   2
$$

MNZ071-072-080-081-089-090-097-098-191900-
SOUTHWEST MINNESOTA

CITY           SKY/WX    TMP DP  RH WIND       PRES   REMARKS
FAIRMONT       MIX PCPN  20  18  92 MISG      29.80F FOG
JACKSON        CLOUDY    18  14  86 N17       29.82R FOG     WCI   2
LUVERNE        CLOUDY    18  12  79 N14G21    29.87R WCI   4
MARSHALL       FLURRIES  15  11  83 N18       29.93S WCI  -2
6HR MIN TEMP:  14; 6HR MAX TEMP:  16; 6HR PCP: TRACE;

MONTEVIDEO     CLOUDY    16  10  79 NE20      29.96F WCI  -1
PIPESTONE      LGT SNOW  14  10  85 NE22G29   29.85S WCI  -4
REDWOOD FALLS  CLOUDY    18  13  80 NE13G23   29.92R WCI   5
TRACY          LGT SNOW  17  15  90 N18       29.90R WCI   1
WINDOM         CLOUDY    18   3  53 N18       29.84R HAZE    WCI   2
WORTHINGTON    LGT SNOW  16  12  84 N20G28    29.83R FOG     WCI  -1
$$

IAZ001>003-012>014-020>022-031-032-NEZ013-014-SDZ071-191900-
NORTHWEST IOWA

CITY           SKY/WX    TMP DP  RH WIND       PRES   REMARKS
CHEROKEE       CLOUDY    20  19  96 N10       29.81S FOG     WCI   9
DENISON        CLOUDY    25  23  93 N20G29    29.79S FOG     WCI  11
ESTHERVILLE    CLOUDY    18  16  92 MISG      29.79S FOG
LE MARS        MOSUNNY   19  18  93 MISG      29.86R FOG
ORANGE CITY    CLOUDY    19  18  93 NE12G18   29.83S FOG     WCI   7
SHELDON        CLOUDY    18  16  93 MISG      29.82S
SIOUX CITY     CLOUDY    20  17  88 N17       29.86R FOG     WCI   5
6HR MIN TEMP:  19; 6HR MAX TEMP:  21; 6HR PCP:  0.01;

SPENCER        MIX PCPN  20  16  84 MISG      29.80S VSB 1
6HR MIN TEMP:  19; 6HR MAX TEMP:  22;

STORM LAKE     LGT SNOW  21  19  93 MISG      29.76F VSB 1
$$

ABBREVIATIONS USED IN REMARKS
   TC - TEMPERATURE IN CELSIUS
  WCI - WIND CHILL INDEX
   HX - HEAT INDEX
  VSB - VISIBILITY




USA.gov is the U.S. government's official web portal to all federal, state and local government web resources and services.